Beijing, China

10:05 PM CST on June 22, 2018 (GMT +0800)
Beijing Capital

Weather History for ZBAA - February, 2011

Change the Weather History Date:

Sunday, February 20, 2011

  Actual Average Record
Temperature  
Mean Temperature 34 °F -  
Max Temperature 48 °F 48 °F 57 °F (2007)
Min Temperature 21 °F 27 °F 8 °F (2005)
Degree Days  
Heating Degree Days 30    
Moisture  
Dew Point 21 °F    
Average Humidity 61    
Maximum Humidity 86    
Minimum Humidity 26    
Precipitation  
Precipitation 0.00 in 0.01 in - ()
Sea Level Pressure  
Sea Level Pressure 30.32 in    
Wind  
Wind Speed 3 mph ()    
Max Wind Speed 4 mph    
Max Gust Speed -    
Visibility 2.6 miles    
Events      
Averages and records for this station are not official NWS values.
T = Trace of Precipitation, MM = Missing Value Source: Averaged Metar Reports

Daily Weather History Graph

Daily Weather History Graph

Search for Another Location

Airport or City:

Astronomy

Feb. 20, 2011 Rise Set
Actual Time 7:01 AM CST 5:54 PM CST
Civil Twilight 6:33 AM CST 6:21 PM CST
Nautical Twilight 6:01 AM CST 6:53 PM CST
Astronomical Twilight 5:30 AM CST 7:24 PM CST
Moon 8:33 PM CST (2/20) 7:37 AM CST (2/20)
Length of Visible Light 11h 48m
Length of Day
10h 53m
Waning Gibbous, 95% of the Moon is Illuminated
Feb 20
Waning Gibbous
Feb 25
Last Quarter
Mar 5
New
Mar 13
First Quarter
Mar 20
Full

Hourly Weather History & Observations

Time (CST) Temp. Windchill Dew Point Humidity Pressure Visibility Wind Dir Wind Speed Gust Speed Precip Events Conditions
12:00 AM 26.6 °F - 21.2 °F 80% 30.27 in 1.9 mi East 2.2 mph - N/A   Haze
12:30 AM 26.6 °F - 21.2 °F 80% 30.27 in 1.9 mi Variable 2.2 mph - N/A   Haze
1:00 AM 26.6 °F - 21.2 °F 80% 30.27 in 1.9 mi Calm Calm - N/A   Mist
1:30 AM 26.6 °F - 21.2 °F 80% 30.27 in 2.2 mi Variable 2.2 mph - N/A   Clear
2:00 AM 28 °F - 20 °F 61% 30.29 in 5 mi South 2.2 mph - -   Mist
2:00 AM 24.8 °F - 19.4 °F 80% 30.30 in 2.2 mi NE 2.2 mph - N/A   Clear
2:30 AM 23.0 °F 17.1 °F 17.6 °F 80% 30.30 in 2.2 mi North 4.5 mph - N/A   Clear
3:00 AM 24.8 °F - 19.4 °F 80% 30.30 in 2.5 mi North 2.2 mph - N/A   Clear
3:30 AM 23.0 °F 17.1 °F 15.8 °F 74% 30.30 in 3.7 mi North 4.5 mph - N/A   Clear
4:00 AM 23.0 °F 17.1 °F 19.4 °F 86% 30.30 in 4.3 mi North 4.5 mph - N/A   Clear
4:30 AM 24.8 °F - 17.6 °F 74% 30.30 in 4.3 mi North 2.2 mph - N/A   Clear
5:00 AM 27 °F - 20 °F 64% 30.30 in 3 mi NNE 2.2 mph - -   Mist
5:00 AM 24.8 °F - 19.4 °F 80% 30.30 in 5.0 mi North 2.2 mph - N/A   Clear
5:30 AM 23.0 °F 17.1 °F 15.8 °F 74% 30.30 in 5.0 mi North 4.5 mph - N/A   Clear
6:00 AM 21.2 °F 15.0 °F 17.6 °F 86% 30.30 in 5.6 mi North 4.5 mph - N/A   Clear
6:30 AM 23.0 °F 17.1 °F 17.6 °F 80% 30.33 in 5.6 mi North 4.5 mph - N/A   Clear
7:00 AM 21.2 °F - 17.6 °F 86% 30.33 in 4.3 mi Calm Calm - N/A   Clear
7:30 AM 23.0 °F - 15.8 °F 74% 30.33 in 3.7 mi North 2.2 mph - N/A   Clear
8:00 AM 29 °F - 18 °F 51% 30.35 in 7 mi ENE 4.5 mph - -   Clear
8:00 AM 23.0 °F - 17.6 °F 80% 30.36 in 3.7 mi North 2.2 mph - N/A   Unknown
8:30 AM 28.4 °F - 21.2 °F 74% 30.36 in 3.7 mi Variable 2.2 mph - N/A   Unknown
9:00 AM 32.0 °F - 19.4 °F 60% 30.36 in 4.3 mi Variable 2.2 mph - N/A   Unknown
9:30 AM 33.8 °F - 17.6 °F 52% 30.39 in 3.1 mi Variable 2.2 mph - N/A   Haze
10:00 AM 35.6 °F - 19.4 °F 52% 30.39 in 2.5 mi Variable 2.2 mph - N/A   Haze
10:30 AM 37.4 °F - 17.6 °F 45% 30.39 in 1.9 mi Variable 2.2 mph - N/A   Haze
11:00 AM 40 °F - 21 °F 33% 30.38 in 4 mi ENE 4.5 mph - -   Haze
11:00 AM 39.2 °F - 19.4 °F 45% 30.39 in 1.9 mi Variable 2.2 mph - N/A   Haze
11:30 AM 41.0 °F 38.1 °F 21.2 °F 45% 30.36 in 1.9 mi ESE 4.5 mph - N/A   Haze
12:00 PM 41.0 °F 38.1 °F 19.4 °F 42% 30.36 in 1.9 mi East 4.5 mph - N/A   Haze
12:30 PM 42.8 °F 40.2 °F 21.2 °F 42% 30.36 in 1.7 mi ESE 4.5 mph - N/A   Haze
1:00 PM 46.4 °F 44.4 °F 23.0 °F 40% 30.33 in 1.6 mi Variable 4.5 mph - N/A   Haze
1:30 PM 46.4 °F 44.4 °F 23.0 °F 40% 30.33 in 1.6 mi SSE 4.5 mph - N/A   Haze
2:00 PM 47 °F - 24 °F 28% 30.31 in 4 mi East 2.2 mph - -   Haze
2:00 PM 46.4 °F 44.4 °F 24.8 °F 43% 30.30 in 1.6 mi SE 4.5 mph - N/A   Haze
2:30 PM 48.2 °F - 23.0 °F 37% 30.30 in 1.2 mi SSE 4.5 mph - N/A   Haze
3:00 PM 48.2 °F - 23.0 °F 37% 30.30 in 1.2 mi Variable 4.5 mph - N/A   Haze
3:30 PM 48.2 °F - 23.0 °F 37% 30.30 in 1.2 mi SSW 4.5 mph - N/A   Haze
4:00 PM 48.2 °F - 24.8 °F 40% 30.30 in 1.2 mi SSE 4.5 mph - N/A   Haze
4:30 PM 46.4 °F 44.4 °F 24.8 °F 43% 30.30 in 1.2 mi SE 4.5 mph - N/A   Haze
5:00 PM 47 °F - 23 °F 26% 30.28 in 4 mi SE 2.2 mph - -   Haze
5:00 PM 44.6 °F - 23.0 °F 43% 30.27 in 1.2 mi SE 2.2 mph - N/A   Haze
5:30 PM 42.8 °F - 24.8 °F 49% 30.27 in 1.2 mi SSE 2.2 mph - N/A   Haze
6:00 PM 42.8 °F 40.2 °F 24.8 °F 49% 30.30 in 1.2 mi SSE 4.5 mph - N/A   Haze
6:30 PM 42.8 °F 40.2 °F 24.8 °F 49% 30.30 in 1.2 mi South 4.5 mph - N/A   Haze
7:00 PM 39.2 °F - 24.8 °F 56% 30.30 in 1.2 mi Variable 2.2 mph - N/A   Haze
7:30 PM 37.4 °F - 23.0 °F 56% 30.30 in 1.2 mi Variable 2.2 mph - N/A   Haze
8:00 PM 38 °F - 24 °F 46% 30.31 in 5 mi Calm Calm - -   Haze
8:00 PM 35.6 °F - 24.8 °F 65% 30.30 in 1.1 mi Variable 2.2 mph - N/A   Haze
8:30 PM 33.8 °F - 24.8 °F 70% 30.30 in 1.1 mi Variable 2.2 mph - N/A   Haze
9:00 PM 32.0 °F - 23.0 °F 69% 30.30 in 1.2 mi Variable 2.2 mph - N/A   Haze
9:30 PM 30.2 °F - 23.0 °F 75% 30.33 in 1.2 mi Variable 2.2 mph - N/A   Mist
10:00 PM 30.2 °F - 24.8 °F 80% 30.33 in 1.1 mi Variable 2.2 mph - N/A   Mist
10:30 PM 30.2 °F - 24.8 °F 80% 30.33 in 1.1 mi East 2.2 mph - N/A   Mist
11:00 PM 32 °F - 24 °F 61% 30.31 in 4 mi East 2.2 mph - -   Mist
11:00 PM 30.2 °F - 24.8 °F 80% 30.30 in 1.1 mi Calm Calm - N/A   Mist
11:30 PM 28.4 °F - 23.0 °F 80% 30.30 in 1.1 mi Variable 2.2 mph - N/A   Mist